Previsão horária em Aarle

Hoje, 30 Setembro, Quarta-feira

Tempo Temperatura Precipitação Vento Pressão Humidade
00:00 +14°C° 0 mm 2 m/s 760 mmHg 95%
01:00 +13°C° 0 mm 3 m/s 760 mmHg 95%
02:00 +12°C° 0 mm 3 m/s 760 mmHg 95%
03:00 +12°C° 0 mm 3 m/s 759 mmHg 95%
04:00 +13°C° 0 mm 2 m/s 759 mmHg 95%
05:00 +12°C° 0 mm 2 m/s 759 mmHg 95%
06:00 +12°C° 0 mm 2 m/s 759 mmHg 95%
07:00 +13°C° 0 mm 3 m/s 759 mmHg 92%
08:00 +14°C° 0 mm 3 m/s 759 mmHg 88%
09:00 +17°C° 0 mm 3 m/s 759 mmHg 84%
10:00 +18°C° 0.2 mm 3 m/s 758 mmHg 81%
11:00 +18°C° 0.2 mm 4 m/s 758 mmHg 79%
12:00 +19°C° 0.2 mm 4 m/s 758 mmHg 77%
13:00 +19°C° 0.4 mm 4 m/s 757 mmHg 78%
14:00 +19°C° 0.4 mm 3 m/s 757 mmHg 80%
15:00 +18°C° 0.4 mm 3 m/s 756 mmHg 81%
16:00 +17°C° 0 mm 3 m/s 756 mmHg 84%
17:00 +17°C° 0 mm 3 m/s 756 mmHg 86%
18:00 +16°C° 0 mm 2 m/s 755 mmHg 89%
19:00 +16°C° 0.1 mm 3 m/s 755 mmHg 89%
20:00 +16°C° 0.1 mm 3 m/s 755 mmHg 89%
21:00 +14°C° 0.1 mm 4 m/s 755 mmHg 89%
22:00 +14°C° 0.1 mm 4 m/s 754 mmHg 88%
23:00 +14°C° 0.1 mm 4 m/s 753 mmHg 87%

Amanhã, 1 Outubro, Quinta-feira

Tempo Temperatura Precipitação Vento Pressão Humidade
00:00 +14°C° 0.1 mm 5 m/s 753 mmHg 86%
01:00 +14°C° 0 mm 5 m/s 752 mmHg 86%
02:00 +14°C° 0 mm 4 m/s 752 mmHg 86%
03:00 +13°C° 0 mm 4 m/s 751 mmHg 85%
04:00 +13°C° 0 mm 4 m/s 750 mmHg 86%
05:00 +13°C° 0 mm 4 m/s 750 mmHg 87%
06:00 +13°C° 0 mm 4 m/s 749 mmHg 87%
07:00 +13°C° 0.3 mm 5 m/s 749 mmHg 88%
08:00 +13°C° 0.3 mm 5 m/s 749 mmHg 88%
09:00 +14°C° 0.3 mm 5 m/s 749 mmHg 88%
10:00 +14°C° 0.9 mm 5 m/s 748 mmHg 88%
11:00 +13°C° 0.9 mm 5 m/s 748 mmHg 88%
12:00 +13°C° 0.9 mm 5 m/s 748 mmHg 88%
13:00 +14°C° 0.2 mm 5 m/s 748 mmHg 82%
14:00 +15°C° 0.2 mm 5 m/s 748 mmHg 77%
15:00 +15°C° 0.2 mm 6 m/s 748 mmHg 71%
16:00 +14°C° 0 mm 5 m/s 749 mmHg 74%
17:00 +13°C° 0 mm 4 m/s 749 mmHg 76%
18:00 +11°C° 0 mm 4 m/s 749 mmHg 78%
19:00 +11°C° 0 mm 3 m/s 749 mmHg 80%
20:00 +11°C° 0 mm 3 m/s 749 mmHg 81%
21:00 +10°C° 0 mm 2 m/s 749 mmHg 82%
22:00 +10°C° 0 mm 3 m/s 749 mmHg 82%
23:00 +10°C° 0 mm 3 m/s 749 mmHg 82%

Depois de amanhã, 2 Outubro, Sexta-feira

Tempo Temperatura Precipitação Vento Pressão Humidade
00:00 +10°C° 0 mm 3 m/s 748 mmHg 82%
01:00 +10°C° 0.2 mm 3 m/s 748 mmHg 85%
02:00 +10°C° 0.2 mm 3 m/s 748 mmHg 87%
03:00 +10°C° 0.2 mm 4 m/s 748 mmHg 89%
04:00 +11°C° 0.3 mm 4 m/s 747 mmHg 90%
05:00 +11°C° 0.3 mm 4 m/s 747 mmHg 91%
06:00 +11°C° 0.3 mm 4 m/s 746 mmHg 91%
07:00 +12°C° 0 mm 5 m/s 746 mmHg 87%
08:00 +13°C° 0 mm 5 m/s 746 mmHg 83%
09:00 +14°C° 0 mm 6 m/s 745 mmHg 80%
10:00 +15°C° 0 mm 6 m/s 745 mmHg 74%
11:00 +16°C° 0 mm 6 m/s 744 mmHg 69%
12:00 +17°C° 0 mm 7 m/s 744 mmHg 63%
13:00 +17°C° 0.1 mm 6 m/s 743 mmHg 65%
14:00 +16°C° 0.1 mm 5 m/s 743 mmHg 68%
15:00 +16°C° 0.1 mm 5 m/s 742 mmHg 70%
16:00 +16°C° 0.2 mm 5 m/s 742 mmHg 70%
17:00 +17°C° 0.2 mm 4 m/s 742 mmHg 70%
18:00 +15°C° 0.2 mm 4 m/s 742 mmHg 71%
19:00 +15°C° 0.6 mm 4 m/s 742 mmHg 74%
20:00 +15°C° 0.6 mm 5 m/s 742 mmHg 77%
21:00 +15°C° 0.6 mm 5 m/s 742 mmHg 81%
22:00 +15°C° 0 mm 5 m/s 741 mmHg 79%
23:00 +15°C° 0 mm 5 m/s 741 mmHg 77%

3 Outubro, Sábado

Tempo Temperatura Precipitação Vento Pressão Humidade
00:00 +15°C° 0 mm 6 m/s 740 mmHg 75%
01:00 +14°C° 0 mm 5 m/s 740 mmHg 77%
02:00 +14°C° 0 mm 4 m/s 740 mmHg 80%
03:00 +13°C° 0 mm 4 m/s 740 mmHg 82%
04:00 +13°C° 0 mm 4 m/s 740 mmHg 84%
05:00 +13°C° 0 mm 4 m/s 741 mmHg 86%
06:00 +12°C° 0 mm 3 m/s 741 mmHg 88%
07:00 +12°C° 0.2 mm 3 m/s 741 mmHg 89%
08:00 +12°C° 0.2 mm 3 m/s 742 mmHg 89%
09:00 +12°C° 0.2 mm 3 m/s 742 mmHg 89%
10:00 +12°C° 0.2 mm 3 m/s 742 mmHg 88%
11:00 +12°C° 0.2 mm 3 m/s 742 mmHg 86%
12:00 +12°C° 0.2 mm 3 m/s 742 mmHg 85%
13:00 +13°C° 0.1 mm 3 m/s 742 mmHg 81%
14:00 +13°C° 0.1 mm 3 m/s 742 mmHg 78%
15:00 +14°C° 0.1 mm 3 m/s 742 mmHg 75%
16:00 +13°C° 0 mm 3 m/s 742 mmHg 76%
17:00 +12°C° 0 mm 3 m/s 742 mmHg 76%
18:00 +12°C° 0 mm 3 m/s 742 mmHg 77%
19:00 +11°C° 0 mm 3 m/s 741 mmHg 77%
20:00 +10°C° 0 mm 3 m/s 741 mmHg 77%
21:00 +10°C° 0 mm 4 m/s 741 mmHg 77%
22:00 +10°C° 0 mm 4 m/s 740 mmHg 78%
23:00 +10°C° 0 mm 4 m/s 740 mmHg 78%

4 Outubro, Domingo

Tempo Temperatura Precipitação Vento Pressão Humidade
00:00 +10°C° 0 mm 4 m/s 740 mmHg 78%
01:00 +9°C° 0 mm 5 m/s 740 mmHg 78%
02:00 +9°C° 0 mm 5 m/s 739 mmHg 78%
03:00 +8°C° 0 mm 5 m/s 739 mmHg 78%
04:00 +8°C° 0 mm 5 m/s 738 mmHg 78%
05:00 +8°C° 0 mm 5 m/s 738 mmHg 78%
06:00 +8°C° 0 mm 5 m/s 738 mmHg 78%
07:00 +9°C° 0.4 mm 6 m/s 738 mmHg 81%
08:00 +9°C° 0.4 mm 7 m/s 738 mmHg 84%
09:00 +9°C° 0.4 mm 8 m/s 738 mmHg 86%
10:00 +10°C° 0.4 mm 8 m/s 739 mmHg 84%
11:00 +10°C° 0.4 mm 9 m/s 739 mmHg 82%
12:00 +11°C° 0.4 mm 10 m/s 740 mmHg 79%
13:00 +11°C° 0.1 mm 9 m/s 740 mmHg 75%
14:00 +12°C° 0.1 mm 7 m/s 741 mmHg 70%
15:00 +14°C° 0.1 mm 6 m/s 741 mmHg 65%
16:00 +13°C° 0 mm 6 m/s 741 mmHg 67%
17:00 +11°C° 0 mm 6 m/s 742 mmHg 69%
18:00 +10°C° 0 mm 5 m/s 742 mmHg 71%
19:00 +11°C° 0.1 mm 6 m/s 743 mmHg 74%
20:00 +11°C° 0.1 mm 6 m/s 743 mmHg 76%
21:00 +11°C° 0.1 mm 6 m/s 743 mmHg 78%
22:00 +10°C° 0 mm 5 m/s 743 mmHg 80%
23:00 +9°C° 0 mm 5 m/s 744 mmHg 82%

5 Outubro, Segunda-feira

Tempo Temperatura Precipitação Vento Pressão Humidade
00:00 +9°C° 0 mm 5 m/s 744 mmHg 84%
01:00 +8°C° 0 mm 5 m/s 744 mmHg 85%
02:00 +8°C° 0 mm 5 m/s 744 mmHg 86%
03:00 +8°C° 0 mm 4 m/s 744 mmHg 86%
04:00 +8°C° 0 mm 5 m/s 744 mmHg 85%
05:00 +8°C° 0 mm 5 m/s 744 mmHg 84%
06:00 +8°C° 0 mm 5 m/s 745 mmHg 83%
07:00 +9°C° 0 mm 5 m/s 744 mmHg 78%
08:00 +10°C° 0 mm 6 m/s 744 mmHg 74%
09:00 +13°C° 0 mm 6 m/s 744 mmHg 69%
10:00 +13°C° 0 mm 6 m/s 744 mmHg 67%
11:00 +14°C° 0 mm 6 m/s 744 mmHg 64%
12:00 +14°C° 0 mm 6 m/s 744 mmHg 62%
13:00 +14°C° 0 mm 6 m/s 743 mmHg 63%
14:00 +14°C° 0 mm 6 m/s 743 mmHg 63%
15:00 +13°C° 0 mm 6 m/s 742 mmHg 64%
16:00 +12°C° 0.5 mm 7 m/s 742 mmHg 69%
17:00 +11°C° 0.5 mm 7 m/s 741 mmHg 75%
18:00 +11°C° 0.5 mm 7 m/s 741 mmHg 80%
19:00 +10°C° 0.6 mm 7 m/s 741 mmHg 82%
20:00 +10°C° 0.6 mm 7 m/s 740 mmHg 84%
21:00 +10°C° 0.6 mm 7 m/s 740 mmHg 86%
22:00 +10°C° 0.1 mm 7 m/s 739 mmHg 86%
23:00 +10°C° 0.1 mm 7 m/s 739 mmHg 85%
Mostrar mais